Regional Weather Roundup
Issued by NWS Wakefield, VA

Home | Current Version | Previous Version | Graphics & Text | Print | Product List | Glossary On
Versions: 1 2 3 4 5 6 7 8 9 10 11 12 13 14 15 16 17 18 19 20 21 22 23 24 25 26 27 28 29 30 31 32 33 34 35 36 37 38 39 40 41 42 43 44 45 46 47 48 49 50
000
ASUS41 KAKQ 041915
RWRAKQ

REGIONAL WEATHER ROUNDUP
NATIONAL WEATHER SERVICE WAKEFIELD VA
300 PM EDT SAT JUL 04 2015

Note: "fair" indicates few or no clouds below 12,000 feet with no
significant weather and/or obstructions to visibility. * = Denotes
station may not report precipitation (e.g., rain,snow,etc.),
thunder or fog.

VAZ042-051-052>054-056-042000-
NORTHERN VIRGINIA

CITY           SKY/WX    TMP DP  RH WIND       PRES   REMARKS
WASH NATIONAL  CLOUDY    82  70  66 S3        29.90F
DULLES         PTSUNNY   79  68  69 CALM      29.90F
FORT BELVOIR   MOSUNNY   80  71  73 CALM      29.89F
QUANTICO       MOSUNNY   81  71  71 S10       29.90F
FREDERICKSBRG* MOSUNNY   86  71  60 S8        29.88F
STAFFORD*      PTSUNNY   82  71  70 SE7       29.93F
WARRENTON      MOSUNNY   83  73  70 SW5       29.89F
CULPEPER*      PTSUNNY   81  69  67 SW6       29.91S
MANASSAS*      MOSUNNY   82  70  65 S5          N/A
LEESBURG*      CLOUDY    81  72  74 S13       29.90F
WINCHESTER     PTSUNNY   82  68  61 N7        29.91R
FRONT ROYAL*   CLOUDY    73  70  88 CALM      29.90S
LURAY*         FAIR      81  72  74 S5        29.92F
$$

VAZ048-049-060>072-079>083-042000-
CENTRAL AND SOUTH CENTRAL VIRGINIA

CITY           SKY/WX    TMP DP  RH WIND       PRES   REMARKS
RICHMOND       CLOUDY    84  69  60 SW8       29.91F
CHESTERFIELD*  NOT AVBL
PETERSBURG*    CLOUDY    84  75  73 SW10      29.93S
HANOVER        PTSUNNY   83  71  67 NW5       29.93F
TAPPAHANNOCK*  PTSUNNY   82  67  60 SW7       29.92S
QUINTON*       NOT AVBL
CHARLOTTSVILLE PTSUNNY   84  70  62 S10G20    29.90F
GORDONSVILLE*  MOCLDY    82  72  69 SW6       29.90F
ORANGE*        PTSUNNY   84  70  61 CALM      29.92F
LOUISA*        MOSUNNY   84  72  65 S6        29.90F
BUMPASS*       FAIR      82  71  69 SW6       29.91F
FARMVILLE*     PTSUNNY   86  68  54 SW12      29.91F
CREWE*         FAIR      83  69  62 SW8       29.93S
FORT PICKETT*  FAIR      82  71  68 SW9       29.94S
CHASE CITY*    FAIR      85  73  68 W3        29.95S
CLARKSVILLE*   FAIR      82  70  65 SW10      29.95S
SOUTH HILL*    CLOUDY    82  71  70 W6        30.00F
LAWRENCEVILLE* NOT AVBL
EMPORIA*         N/A     82  70  65 SW6       29.94F
$$

VAZ088>098-042000-
SOUTHEAST VIRGINIA

CITY           SKY/WX    TMP DP  RH WIND       PRES   REMARKS
NORFOLK        PTSUNNY   86  68  54 SW9       29.91S
VIRGINIA BEACH MOSUNNY   90  70  51 W16G22    29.91S HX  95
NORFOLK NAVAL  PTSUNNY   79  73  82 W10       29.93S
WEST POINT*    PTSUNNY   85  69  58 W7        29.93R
SALUDA*        MOCLDY    82  72  71 W6        29.90F
NEWPORT NEWS   MOSUNNY   83  71  67 SW13      29.91F
LANGLEY AFB    PTSUNNY   83  72  69 SW9       29.90F
FORT EUSTIS    MOSUNNY   83  77  81 SW5       29.90S
WILLIAMSBURG*  PTSUNNY   88  73  62 W6        29.93S HX  96
HR EXEC AP*    FAIR      88  72  58 SW13      29.93F
FRANKLIN*      MOSUNNY   85  71  62 SW12      29.93S
WAKEFIELD      MOSUNNY   85  71  63 W9        29.92S
$$

VAZ020-022-025-037-045-042000-
WEST CENTRAL AND SOUTHWEST VIRGINIA

CITY           SKY/WX    TMP DP  RH WIND       PRES   REMARKS
STAUNTON*      CLOUDY    82  67  61 W8        29.97R
WAYNESBORO*    FAIR      79  66  64 W6        29.97R
HOT SPRINGS VA CLOUDY    69  68  94 W8        30.08S
LYNCHBURG      MOSUNNY   83  69  62 SW9       29.96F
DANVILLE       PTSUNNY   85  69  58 VRB7      29.95F
SOUTH BOSTON*  MOCLDY    83  70  66 MISG      29.95F
MARTINSVILLE   PTSUNNY   83  69  60 SW8       30.00S
ROANOKE        PTSUNNY   83  65  54 W8        29.98F
BLACKSBURG     PTSUNNY   77  66  68 W6G16     30.06S
DUBLIN*        MOSUNNY   79  69  71 W5        30.04F
MARION*        PTSUNNY   76  66  71 W8        30.09F
HILLSVILLE*    CLOUDY    74  63  69 W9        30.06F
RICHLANDS*     MOCLDY    70  67  88 CALM      30.08S
WISE*          CLOUDY    77  63  61 W6        30.09S
ABINGDON*      CLOUDY    76  68  75 W6        30.06F
$$

MDZ021>025-VAZ099-100-042000-
SOUTHERN MARYLAND AND THE DELMARVA PENINSULA

CITY           SKY/WX    TMP DP  RH WIND       PRES   REMARKS
PATUXENT RIVER PTSUNNY   78  69  73 NE7       29.90S
BAY BRIDGE APT   N/A     73  68  83 NE6       29.92S
LEONARDTOWN    PTSUNNY   79  68  69 W3        29.92F
DOVER          CLOUDY    77  66  69 VRB3      29.90F
GEORGETOWN     CLOUDY    78  65  63 NE9       29.92S
EASTON         PTSUNNY   79  72  78 E6        29.95S
CAMBRIDGE      PTSUNNY   81  64  57 NW5       29.90S
SALISBURY      PTSUNNY   81  70  69 N7        29.90S
OCEAN CITY     MOSUNNY   77  67  71 E10       29.91S
WALLOPS ISLAND CLOUDY    77  74  90 SE9       29.91R
ACCOMACK*      CLOUDY    81  73  78 W6        29.91S
$$

NCZ012>017-030>032-042000-
NORTH CENTRAL AND EASTERN NORTH CAROLINA

CITY           SKY/WX    TMP DP  RH WIND       PRES   REMARKS
ROANOKE RAPIDS FAIR      88  70  55 W9        29.94F
RALEIGH        LGT RAIN  76  72  87 SW9       29.99F
ELIZABETH CITY PTSUNNY   85  73  67 SW12      29.93S
AHOSKIE*       PTSUNNY  N/A N/A N/A CALM      29.94S
EDENTON*         N/A     81  71  71 W12       29.95S
CURRITUCK*     PTSUNNY   86  67  52 W8        29.94S
KILL DEVIL HLS DRIZZLE   85  71  63 SW7G16    29.94S
MANTEO         RAIN      78  73  84 NW20G28   29.96R
CAPE HATTERAS  SUNNY     83  72  69 SW16G28   29.99S
TARBORO*         N/A     82  74  78 SW7       29.97S
GOLDSBORO      MOSUNNY   90  69  50 W17G31    29.96S
WASHINGTON     MOSUNNY   77  68  72 NW13      29.99R
GREENVILLE     PTSUNNY   77  72  83 W6        29.99F
NEW BERN       SUNNY     89  69  51 SW18G29   30.00S
WILMINGTON     SUNNY     92  66  42 W17G28    30.03S
$$

VAZ048-042000-
ELSEWHERE

CITY           SKY/WX    TMP DP  RH WIND       PRES   REMARKS
HARRISBURG PA  CLOUDY    70  62  76 SE5       29.94S
BALTIMORE      CLOUDY    75  68  78 E5        29.91F
ANNAPOLIS      CLOUDY    75  68  78 NE7       29.91F
ANDREWS AFB    MOSUNNY   79  73  83 VRB1      29.90F
PHILADELPHIA   CLOUDY    75  63  66 NE12      29.93S
HENDERSON NC   CLOUDY    83  66  54 W9        29.97S
GREENSBORO     PTSUNNY   84  66  54 W8        29.99F
ROCKY MOUNT    TSTM      75  71  87 S15G30    29.99R FOG
$$

VAZ100-042000-
MARINE

STATION/POSITION TIME  TEMP    WIND        PRES    WAVE   SWELL
                       AIR SEA DIR/SP/G            HT/PER HT/PER
                 (UTC) (F)     (DEG/KT/KT) (MB)    (FT/S) (FT/S)
BRANDYWINE LGT   1800   74 73   60/  6/  7 1013.1R
CAPE MAY NJ      1800   77 75   70/  7/ 12 1012.4F
LEWES DE         1800   73 73   60/  6/  7 1013.0R
15NM E FENWICK I 1850   72 73              1012.4R   4/ 6
OCEAN-CITY-INLET 1800   74 73   70/ 11/ 14 1012.5R
WACHAPREAGUE VA  1800   81 82  270/  4/  7 1012.8R
THOMAS POINT MD  1800   73 76  360/  7/  8 1013.5R
GOOSES REEF MD   1900   76 79   40/  6/  8 1013.8S
COVE POINT MD    1800   75      30/  7/ 10 1013.3S
SOLOMONS ISLAND  1800      80                N/A
BISHOPS HEAD MD  1800   79     270/  7/ 10 1012.3F
PINEY POINT MD   1800          350/  7/  8   N/A
CAMBRIDGE MD     1800   78 79  330/  3/  3 1012.5R
LEWISETTA VA     1800   79 80   50/  4/  6 1012.3S
RAPPAHANNOCK LGT 1800          230/ 10/ 11 1013.3S
STINGRAY PT      1900   81 80  250/ 10/ 14 1012.6F   1
YORK RVR RNG VA  1800   81     270/ 12/ 14 1012.4S
YORKTOWN VA      1800   81 80  250/ 12/ 14 1012.6F
JAMESTOWN VA     1900   82 83  280/ 10/ 12   N/A
DOMINION TERM VA 1800   81     280/  9/ 10 1013.0F
KIPTOPEKE VA     1800      82  290/  4/  6   N/A
CHES BAY BRIDGE  1800   80 77  280/ 11/ 13 1012.7F
CAPE HENRY VA    1800   80     300/ 10/ 13   N/A
CHESAPEAKE LGHT  1800   79     290/ 10/ 11 1013.9S
WILLOUBY STN VA  1800   81     260/  8/  8 1014.0F
CAPE HENRY BUOY  1828      77                N/A     3/ 7
1ST LANDING BUOY 1900      78              1012.8F
CAPE CHARLES BUO 1826      76                N/A     3/ 8   2/ 8
OFFSHORE WE BUOY 1811      79                N/A     4/ 7   3/ 7
64NM E OF VA BCH 1850   78 76  250/  8/ 10 1013.8R   5/ 8   5/ 8
DUCK PIER NC     1800   84 69  260/ 12/ 22   N/A
44100 DUCK FRF   1824      75                N/A     3/ 8
44056 DUCK FRF   1811      77                N/A     2/14   2/14
OREGON INLET NC  1800   83 81  200/ 17/ 21 1014.2S
HATTERAS NC      1800   82 77  220/ 16/ 22 1015.1F
DIAMOND SHLS NC  1850   81 82  230/ 23/ 27 1015.5R   7/ 7   2/14
CAPE LOOKOUT NC  1900   83     220/ 13/ 15 1016.2F
$$


USA.gov is the U.S. government's official web portal to all federal, state and local government web resources and services.